User: anonymous   Login
Location: Unspecified
(0.0000°N, 0.0000°E)
Time: 02:50:48
(UTC+00:00)
Language:

Picosat 3 - Orbit

View from above orbital plane
View from above orbital plane
View from above satellite
View from above satellite

Ground track
Ground track

The orbit data is extracted from the following two-line orbital elements,

1 26091U 00004J   18173.42978959 +.00000202 +00000-0 +69736-4 0  9994
2 26091 100.2172 344.8577 0030008 106.2984 254.1507 14.48878819967220
Epoch (UTC): 22 June 2018 10:18:53
Eccentricity: 0.0030008
inclination: 100.2172°
perigee height: 708 km
apogee height: 750 km
right ascension of ascending node: 344.8577°
argument of perigee: 106.2984°
revolutions per day: 14.48878819
mean anomaly at epoch: 254.1507°
orbit number at epoch: 96722

The dashed part of the orbit path shows where the satellite is in the earth's shadow,  

DLR